Zacatecas Airport, Mexico

11:17 AM CST on December 13, 2017 (GMT -0600)
Gen Leobardo C Ruiz International

Weather History for MMZC - March, 2013

Change the Weather History Date:

Friday, March 15, 2013

  Actual Average Record
Temperature  
Mean Temperature 54 °F -  
Max Temperature 68 °F 73 °F 80 °F (2006)
Min Temperature 41 °F 38 °F 28 °F (1999)
Degree Days  
Heating Degree Days 10    
Growing Degree Days 4 (Base 50)    
Moisture  
Dew Point 22 °F    
Average Humidity 30    
Maximum Humidity 49    
Minimum Humidity 15    
Precipitation  
Precipitation 0.00 in - - ()
Sea Level Pressure  
Sea Level Pressure 30.28 in    
Wind  
Wind Speed 5 mph ()    
Max Wind Speed 17 mph    
Max Gust Speed 23 mph    
Visibility 9.0 miles    
Events      
Averages and records for this station are not official NWS values.
T = Trace of Precipitation, MM = Missing Value Source: Averaged Metar Reports

Daily Weather History Graph

Daily Weather History Graph

Search for Another Location

Airport or City:

Trip Planner

Search our weather history database for the weather conditions in past years. The results will help you decide how hot, cold, wet, or windy it might be!

Date:

Astronomy

Mar. 15, 2013 Rise Set
Actual Time 6:59 AM CST 7:00 PM CST
Civil Twilight 6:36 AM CST 7:22 PM CST
Nautical Twilight 6:10 AM CST 7:48 PM CST
Astronomical Twilight 5:44 AM CST 8:14 PM CST
Moon 9:21 AM CST (3/15) 10:42 PM CST (3/15)
Length of Visible Light 12h 45m
Length of Day
12h 00m
Waxing Crescent, 16% of the Moon is Illuminated
Mar 15
Waxing Crescent
Mar 19
First Quarter
Mar 27
Full
Apr 2
Last Quarter
Apr 10
New

Hourly Weather History & Observations

Time (CST) Temp. Windchill Dew Point Humidity Pressure Visibility Wind Dir Wind Speed Gust Speed Precip Events Conditions
12:06 AM 48.2 °F - 24.8 °F 40% 30.35 in 10.0 mi SW 5.8 mph - N/A   Scattered Clouds
12:40 AM 50.0 °F - 26.6 °F 40% 30.35 in 10.0 mi WSW 5.8 mph - N/A   Partly Cloudy
1:40 AM 51.8 °F - 26.6 °F 38% 30.35 in 10.0 mi SSE 3.5 mph - N/A   Partly Cloudy
2:41 AM 48.2 °F - 26.6 °F 43% 30.33 in 10.0 mi West 3.5 mph - N/A   Mostly Cloudy
3:40 AM 46.4 °F 42.4 °F 23.0 °F 40% 30.32 in 10.0 mi NE 8.1 mph - N/A   Overcast
4:42 AM 42.8 °F 41.1 °F 23.0 °F 46% 30.31 in 10.0 mi North 3.5 mph - N/A   Overcast
5:40 AM 44.6 °F - 23.0 °F 43% 30.31 in 10.0 mi Calm Calm - N/A   Overcast
6:51 AM 41.0 °F - 23.0 °F 49% 30.32 in 10.0 mi Calm Calm - N/A   Overcast
8:42 AM 46.4 °F 45.2 °F 24.8 °F 43% 30.34 in 10.0 mi NNE 3.5 mph - N/A   Overcast
9:42 AM 51.8 °F - 26.6 °F 38% 30.35 in 7.0 mi North 5.8 mph - N/A   Mostly Cloudy
10:42 AM 57.2 °F - 28.4 °F 33% 30.34 in 7.0 mi North 8.1 mph - N/A   Overcast
11:42 AM 64.4 °F - 19.4 °F 18% 30.32 in 8.0 mi ESE 17.3 mph - N/A   Overcast
12:40 PM 66.2 °F - 21.2 °F 18% 30.30 in 8.0 mi ENE 17.3 mph - N/A   Overcast
1:40 PM 68.0 °F - 21.2 °F 17% 30.26 in 8.0 mi NE 11.5 mph 23.0 mph N/A   Overcast
2:45 PM 66.2 °F - 17.6 °F 15% 30.23 in 8.0 mi ENE 11.5 mph - N/A   Overcast
3:42 PM 64.4 °F - 17.6 °F 16% 30.21 in 8.0 mi NNE 9.2 mph - N/A   Overcast
4:45 PM 64.4 °F - 17.6 °F 16% 30.20 in 8.0 mi NE 5.8 mph - N/A   Overcast
5:52 PM 62.6 °F - 15.8 °F 16% 30.20 in 10.0 mi ENE 6.9 mph - N/A   Overcast
6:48 PM 60.8 °F - 17.6 °F 19% 30.19 in 8.0 mi North 3.5 mph - N/A   Overcast
7:44 PM 59.0 °F - 15.8 °F 19% 30.20 in 8.0 mi SE 5.8 mph - N/A   Overcast
8:41 PM 57.2 °F - 14.0 °F 18% 30.21 in 8.0 mi SE 5.8 mph - N/A   Overcast
9:40 PM 57.2 °F - 17.6 °F 21% 30.23 in 10.0 mi South 3.5 mph - N/A   Overcast
10:44 PM 55.4 °F - 23.0 °F 29% 30.24 in 10.0 mi SSW 4.6 mph - N/A   Overcast
11:40 PM 55.4 °F - 32.0 °F 41% 30.23 in 10.0 mi SE 5.8 mph - N/A   Overcast